Location: Sternwarte_Laufen
(47.9344°N, 12.9346°E)
Time: 01:16:59
(UTC+02:00)

Envisat - Pass Details

Date: 17 May 2026
Orbit: 761 x 763 km, 98.4° (Epoch: 7 June)

Event Time Altitude Azimuth Distance (km) Brightness Sun altitude
Rises 02:56:29 0° 23° (NNE) 3,235 7.9 -18.3°
Reaches altitude 10° 02:59:06 10° 35° (NE) 2,304 6.7 -18.0°
Maximum altitude 03:03:28 28° 94° (E) 1,394 4.6 -17.7°
Enters shadow 03:07:47 10° 153° (SSE) 2,287 5.1 -17.3°
